Location: Most
(50.5133°N, 13.6207°E)
Time: 14:19:24
(UTC+01:00)

UNHA 3 R/B - Pass Details

Date: 28 September 2020
Orbit: 479 x 556 km, 97.4° (Epoch: 27 October)

Event Time Altitude Azimuth Distance (km) Brightness Sun altitude
Rises 03:55:51 0° 34° (NE) 2,654 9.9 -28.6°
Reaches altitude 10° 04:00:07 10° 81° (E) 1,782 8.7 -28.1°
Maximum altitude 04:00:30 10° 87° (E) 1,776 8.6 -28.0°
Drops below altitude 10° 04:00:53 10° 92° (E) 1,785 8.5 -28.0°
Sets 04:05:12 0° 139° (SE) 2,690 8.9 -27.4°
